Time,TemperatureF,DewpointF,PressureIn,WindDirection,WindDirectionDegrees,WindSpeedMPH,WindSpeedGustMPH,Humidity,HourlyPrecipIn,Conditions,Clouds,dailyrainin,SoftwareType,DateUTC
2013-02-07 00:00:00,50.9,43.2,29.77,East,90,2.0,6.0,75,0.00,,,0.00,Weather View 32 v70,2013-02-07 05:00:00,
2013-02-07 00:01:00,50.8,43.1,29.77,East,90,2.0,6.0,75,0.00,,,0.00,Weather View 32 v70,2013-02-07 05:01:00,
2013-02-07 00:06:00,50.7,43.4,29.77,East,90,3.0,6.0,76,0.00,,,0.00,Weather View 32 v70,2013-02-07 05:06:00,
2013-02-07 00:11:00,50.4,43.4,29.77,East,90,3.0,6.0,77,0.00,,,0.00,Weather View 32 v70,2013-02-07 05:11:00,
2013-02-07 00:16:00,50.2,43.6,29.77,East,90,2.0,6.0,78,0.00,,,0.00,Weather View 32 v70,2013-02-07 05:16:00,
2013-02-07 00:21:00,50.3,44.4,29.77,East,90,2.0,6.0,80,0.00,,,0.00,Weather View 32 v70,2013-02-07 05:21:00,
2013-02-07 00:26:00,50.2,45.2,29.77,East,90,2.0,6.0,83,0.00,,,0.00,Weather View 32 v70,2013-02-07 05:26:00,
2013-02-07 00:31:00,50.3,46.3,29.77,East,90,3.0,6.0,86,0.00,,,0.00,Weather View 32 v70,2013-02-07 05:31:00,
2013-02-07 00:36:00,50.2,46.5,29.77,East,90,3.0,6.0,87,0.00,,,0.00,Weather View 32 v70,2013-02-07 05:36:00,
2013-02-07 00:41:00,50.2,46.8,29.77,East,90,4.0,7.0,88,0.00,,,0.00,Weather View 32 v70,2013-02-07 05:41:00,
2013-02-07 00:46:00,50.2,46.8,29.77,East,90,4.0,7.0,88,0.00,,,0.00,Weather View 32 v70,2013-02-07 05:46:00,
2013-02-07 00:51:00,49.9,46.8,29.77,East,90,4.0,7.0,89,0.00,,,0.00,Weather View 32 v70,2013-02-07 05:51:00,
2013-02-07 00:56:00,49.8,46.7,29.77,ENE,67,5.0,7.0,89,0.00,,,0.00,Weather View 32 v70,2013-02-07 05:56:00,
2013-02-07 01:01:00,49.8,46.7,29.77,East,90,5.0,10.0,89,0.00,,,0.00,Weather View 32 v70,2013-02-07 06:01:00,
2013-02-07 01:06:00,49.8,46.4,29.76,East,90,9.0,10.0,88,0.00,,,0.00,Weather View 32 v70,2013-02-07 06:06:00,
2013-02-07 01:11:00,49.7,46.0,29.76,East,90,6.0,11.0,87,0.00,,,0.00,Weather View 32 v70,2013-02-07 06:11:00,
2013-02-07 01:16:00,49.5,45.8,29.77,East,90,4.0,11.0,87,0.00,,,0.00,Weather View 32 v70,2013-02-07 06:16:00,
2013-02-07 01:21:00,49.3,45.9,29.77,East,90,4.0,11.0,88,0.00,,,0.00,Weather View 32 v70,2013-02-07 06:21:00,
2013-02-07 01:26:00,49.3,45.9,29.77,East,90,2.0,11.0,88,0.00,,,0.00,Weather View 32 v70,2013-02-07 06:26:00,
2013-02-07 01:31:00,49.1,45.7,29.77,East,90,2.0,11.0,88,0.00,,,0.00,Weather View 32 v70,2013-02-07 06:31:00,
2013-02-07 01:36:00,49.0,45.9,29.77,East,90,3.0,11.0,89,0.00,,,0.00,Weather View 32 v70,2013-02-07 06:36:00,
2013-02-07 01:41:00,48.8,46.0,29.77,East,90,3.0,11.0,90,0.00,,,0.00,Weather View 32 v70,2013-02-07 06:41:00,
2013-02-07 01:46:00,48.6,46.1,29.77,East,90,3.0,11.0,91,0.00,,,0.00,Weather View 32 v70,2013-02-07 06:46:00,
2013-02-07 01:51:00,48.4,46.2,29.77,East,90,2.0,11.0,92,0.00,,,0.00,Weather View 32 v70,2013-02-07 06:51:00,
2013-02-07 02:23:00,48.3,46.9,29.76,East,90,4.0,7.0,95,0.00,,,0.00,Weather View 32 v70,2013-02-07 07:23:00,
2013-02-07 02:28:00,48.2,47.4,29.76,East,90,4.0,6.0,97,0.00,,,0.00,Weather View 32 v70,2013-02-07 07:28:00,
2013-02-07 02:33:00,48.2,47.4,29.76,East,90,2.0,6.0,97,0.00,,,0.00,Weather View 32 v70,2013-02-07 07:33:00,
2013-02-07 02:38:00,48.3,47.5,29.77,East,90,3.0,6.0,97,0.00,,,0.00,Weather View 32 v70,2013-02-07 07:38:00,
2013-02-07 02:43:00,48.2,47.4,29.77,East,90,3.0,6.0,97,0.00,,,0.00,Weather View 32 v70,2013-02-07 07:43:00,
2013-02-07 02:48:00,48.1,47.3,29.77,East,90,4.0,6.0,97,0.00,,,0.00,Weather View 32 v70,2013-02-07 07:48:00,
2013-02-07 02:53:00,48.1,47.3,29.77,East,90,4.0,6.0,97,0.00,,,0.00,Weather View 32 v70,2013-02-07 07:53:00,
2013-02-07 02:58:00,47.9,47.1,29.77,East,90,2.0,6.0,97,0.00,,,0.00,Weather View 32 v70,2013-02-07 07:58:00,
2013-02-07 03:03:00,47.8,47.0,29.77,East,90,3.0,6.0,97,0.00,,,0.00,Weather View 32 v70,2013-02-07 08:03:00,
2013-02-07 03:08:00,47.8,47.0,29.77,East,90,2.0,6.0,97,0.00,,,0.00,Weather View 32 v70,2013-02-07 08:08:00,
2013-02-07 03:13:00,47.6,46.8,29.77,East,90,5.0,6.0,97,0.00,,,0.00,Weather View 32 v70,2013-02-07 08:13:00,
2013-02-07 03:18:00,47.8,47.0,29.76,East,90,4.0,7.0,97,0.00,,,0.00,Weather View 32 v70,2013-02-07 08:18:00,
2013-02-07 03:23:00,47.8,47.0,29.76,East,90,5.0,7.0,97,0.00,,,0.00,Weather View 32 v70,2013-02-07 08:23:00,
2013-02-07 03:28:00,47.9,47.1,29.76,East,90,4.0,7.0,97,0.00,,,0.00,Weather View 32 v70,2013-02-07 08:28:00,
2013-02-07 03:33:00,47.8,47.0,29.76,East,90,4.0,7.0,97,0.00,,,0.00,Weather View 32 v70,2013-02-07 08:33:00,
2013-02-07 03:38:00,47.6,46.8,29.76,East,90,3.0,7.0,97,0.00,,,0.00,Weather View 32 v70,2013-02-07 08:38:00,
2013-02-07 03:43:00,47.6,46.8,29.76,East,90,4.0,8.0,97,0.00,,,0.00,Weather View 32 v70,2013-02-07 08:43:00,
2013-02-07 03:48:00,47.3,46.5,29.76,ENE,67,6.0,8.0,97,0.00,,,0.00,Weather View 32 v70,2013-02-07 08:48:00,
2013-02-07 03:53:00,47.3,46.5,29.76,ENE,67,4.0,8.0,97,0.00,,,0.00,Weather View 32 v70,2013-02-07 08:53:00,
2013-02-07 03:58:00,47.5,46.7,29.77,ESE,112,5.0,8.0,97,0.00,,,0.00,Weather View 32 v70,2013-02-07 08:58:00,
2013-02-07 04:03:00,47.5,46.7,29.77,ENE,67,4.0,8.0,97,0.00,,,0.00,Weather View 32 v70,2013-02-07 09:03:00,
2013-02-07 04:08:00,47.9,47.1,29.77,SE,135,4.0,8.0,97,0.00,,,0.00,Weather View 32 v70,2013-02-07 09:08:00,
2013-02-07 04:13:00,48.1,47.3,29.77,East,90,6.0,8.0,97,0.00,,,0.00,Weather View 32 v70,2013-02-07 09:13:00,
2013-02-07 04:18:00,48.0,47.2,29.77,East,90,4.0,8.0,97,0.00,,,0.00,Weather View 32 v70,2013-02-07 09:18:00,
2013-02-07 04:24:00,48.1,47.3,29.77,East,90,4.0,8.0,97,0.00,,,0.00,Weather View 32 v70,2013-02-07 09:24:00,
2013-02-07 04:29:00,48.0,47.2,29.77,East,90,3.0,8.0,97,0.00,,,0.00,Weather View 32 v70,2013-02-07 09:29:00,
2013-02-07 04:34:00,47.9,47.1,29.77,ENE,67,6.0,10.0,97,0.00,,,0.00,Weather View 32 v70,2013-02-07 09:34:00,
2013-02-07 04:39:00,47.7,46.9,29.77,East,90,7.0,11.0,97,0.00,,,0.00,Weather View 32 v70,2013-02-07 09:39:00,
2013-02-07 04:44:00,47.6,46.8,29.77,East,90,7.0,11.0,97,0.00,,,0.00,Weather View 32 v70,2013-02-07 09:44:00,
2013-02-07 04:49:00,47.6,46.8,29.77,ENE,67,9.0,12.0,97,0.00,,,0.00,Weather View 32 v70,2013-02-07 09:49:00,
2013-02-07 04:54:00,47.4,46.6,29.77,East,90,5.0,12.0,97,0.00,,,0.00,Weather View 32 v70,2013-02-07 09:54:00,
2013-02-07 04:59:00,47.3,46.5,29.78,East,90,7.0,12.0,97,0.00,,,0.00,Weather View 32 v70,2013-02-07 09:59:00,
2013-02-07 05:04:00,47.5,46.7,29.78,ENE,67,10.0,12.0,97,0.00,,,0.00,Weather View 32 v70,2013-02-07 10:04:00,
2013-02-07 05:09:00,47.5,46.7,29.78,ENE,67,6.0,12.0,97,0.00,,,0.00,Weather View 32 v70,2013-02-07 10:09:00,
2013-02-07 05:14:00,47.6,46.8,29.78,ENE,67,5.0,12.0,97,0.00,,,0.00,Weather View 32 v70,2013-02-07 10:14:00,
2013-02-07 05:19:00,47.6,46.8,29.78,ENE,67,6.0,12.0,97,0.00,,,0.00,Weather View 32 v70,2013-02-07 10:19:00,
2013-02-07 05:24:00,47.5,46.7,29.78,East,90,7.0,12.0,97,0.00,,,0.00,Weather View 32 v70,2013-02-07 10:24:00,
2013-02-07 05:29:00,47.3,46.5,29.78,East,90,6.0,12.0,97,0.00,,,0.00,Weather View 32 v70,2013-02-07 10:29:00,
2013-02-07 05:34:00,47.4,46.6,29.78,ENE,67,7.0,12.0,97,0.00,,,0.00,Weather View 32 v70,2013-02-07 10:34:00,
2013-02-07 05:39:00,47.4,46.6,29.78,ENE,67,6.0,12.0,97,0.00,,,0.00,Weather View 32 v70,2013-02-07 10:39:00,
2013-02-07 05:44:00,47.3,46.5,29.78,ENE,67,6.0,12.0,97,0.00,,,0.00,Weather View 32 v70,2013-02-07 10:44:00,
2013-02-07 05:49:00,47.5,46.7,29.78,NE,45,6.0,12.0,97,0.00,,,0.00,Weather View 32 v70,2013-02-07 10:49:00,
2013-02-07 05:54:00,47.5,46.7,29.78,ENE,67,7.0,14.0,97,0.00,,,0.00,Weather View 32 v70,2013-02-07 10:54:00,
2013-02-07 05:59:00,47.6,46.8,29.78,ENE,67,6.0,14.0,97,0.00,,,0.00,Weather View 32 v70,2013-02-07 10:59:00,
2013-02-07 06:04:00,47.5,46.7,29.78,East,90,5.0,14.0,97,0.00,,,0.00,Weather View 32 v70,2013-02-07 11:04:00,
2013-02-07 06:09:00,47.5,46.7,29.78,East,90,4.0,14.0,97,0.00,,,0.00,Weather View 32 v70,2013-02-07 11:09:00,
2013-02-07 06:14:00,47.3,46.5,29.78,ENE,67,7.0,14.0,97,0.00,,,0.00,Weather View 32 v70,2013-02-07 11:14:00,
2013-02-07 06:19:00,47.4,46.6,29.78,ENE,67,11.0,14.0,97,0.00,,,0.00,Weather View 32 v70,2013-02-07 11:19:00,
2013-02-07 06:24:00,47.5,46.7,29.78,ENE,67,6.0,14.0,97,0.00,,,0.00,Weather View 32 v70,2013-02-07 11:24:00,
2013-02-07 06:29:00,47.5,46.7,29.78,East,90,4.0,14.0,97,0.00,,,0.00,Weather View 32 v70,2013-02-07 11:29:00,
2013-02-07 06:34:00,47.5,46.7,29.78,East,90,3.0,14.0,97,0.00,,,0.00,Weather View 32 v70,2013-02-07 11:34:00,
2013-02-07 06:39:00,47.7,46.9,29.78,East,90,4.0,14.0,97,0.00,,,0.00,Weather View 32 v70,2013-02-07 11:39:00,
2013-02-07 06:44:00,47.6,46.8,29.78,East,90,7.0,14.0,97,0.00,,,0.00,Weather View 32 v70,2013-02-07 11:44:00,
2013-02-07 06:49:00,47.5,46.7,29.78,East,90,3.0,14.0,97,0.00,,,0.00,Weather View 32 v70,2013-02-07 11:49:00,
2013-02-07 06:54:00,47.3,46.5,29.78,ENE,67,6.0,12.0,97,0.00,,,0.00,Weather View 32 v70,2013-02-07 11:54:00,
2013-02-07 06:59:00,47.2,46.4,29.77,East,90,6.0,12.0,97,0.00,,,0.00,Weather View 32 v70,2013-02-07 11:59:00,
2013-02-07 07:04:00,47.0,46.2,29.77,East,90,6.0,12.0,97,0.00,,,0.00,Weather View 32 v70,2013-02-07 12:04:00,
2013-02-07 07:09:00,46.9,46.1,29.78,East,90,7.0,12.0,97,0.00,,,0.00,Weather View 32 v70,2013-02-07 12:09:00,
2013-02-07 07:15:00,46.8,46.0,29.77,East,90,10.0,12.0,97,0.00,,,0.00,Weather View 32 v70,2013-02-07 12:15:00,
2013-02-07 07:20:00,46.7,45.9,29.77,East,90,8.0,12.0,97,0.00,,,0.00,Weather View 32 v70,2013-02-07 12:20:00,
2013-02-07 07:25:00,46.7,45.9,29.77,East,90,9.0,14.0,97,0.00,,,0.00,Weather View 32 v70,2013-02-07 12:25:00,
2013-02-07 07:30:00,46.6,45.8,29.77,East,90,6.0,14.0,97,0.00,,,0.00,Weather View 32 v70,2013-02-07 12:30:00,
2013-02-07 07:35:00,46.6,45.8,29.77,East,90,7.0,14.0,97,0.00,,,0.00,Weather View 32 v70,2013-02-07 12:35:00,
2013-02-07 07:40:00,46.5,45.7,29.77,East,90,9.0,14.0,97,0.00,,,0.00,Weather View 32 v70,2013-02-07 12:40:00,
2013-02-07 07:45:00,46.7,45.9,29.76,ENE,67,7.0,15.0,97,0.00,,,0.00,Weather View 32 v70,2013-02-07 12:45:00,
2013-02-07 07:50:00,46.7,45.9,29.77,East,90,7.0,15.0,97,0.00,,,0.00,Weather View 32 v70,2013-02-07 12:50:00,
2013-02-07 07:55:00,46.7,45.9,29.77,NE,45,9.0,15.0,97,0.00,,,0.00,Weather View 32 v70,2013-02-07 12:55:00,
2013-02-07 08:00:00,46.8,46.0,29.77,ENE,67,11.0,15.0,97,0.00,,,0.00,Weather View 32 v70,2013-02-07 13:00:00,
2013-02-07 08:05:00,46.8,46.0,29.77,East,90,6.0,15.0,97,0.00,,,0.00,Weather View 32 v70,2013-02-07 13:05:00,
2013-02-07 08:10:00,46.9,46.1,29.77,ENE,67,7.0,15.0,97,0.00,,,0.00,Weather View 32 v70,2013-02-07 13:10:00,
2013-02-07 08:15:00,46.9,46.1,29.77,ENE,67,7.0,15.0,97,0.00,,,0.00,Weather View 32 v70,2013-02-07 13:15:00,
2013-02-07 08:20:00,47.1,46.3,29.77,East,90,9.0,15.0,97,0.00,,,0.00,Weather View 32 v70,2013-02-07 13:20:00,
2013-02-07 08:25:00,47.2,46.4,29.77,East,90,8.0,15.0,97,0.00,,,0.00,Weather View 32 v70,2013-02-07 13:25:00,
2013-02-07 08:30:00,47.3,46.5,29.77,East,90,8.0,15.0,97,0.00,,,0.00,Weather View 32 v70,2013-02-07 13:30:00,
2013-02-07 08:35:00,47.5,46.7,29.76,East,90,10.0,15.0,97,0.00,,,0.00,Weather View 32 v70,2013-02-07 13:35:00,
2013-02-07 08:40:00,47.7,46.9,29.76,ENE,67,11.0,15.0,97,0.00,,,0.00,Weather View 32 v70,2013-02-07 13:40:00,
2013-02-07 08:45:00,47.9,47.1,29.76,East,90,10.0,14.0,97,0.00,,,0.00,Weather View 32 v70,2013-02-07 13:45:00,
2013-02-07 08:50:00,48.1,47.3,29.76,ENE,67,10.0,14.0,97,0.00,,,0.00,Weather View 32 v70,2013-02-07 13:50:00,
2013-02-07 08:55:00,48.2,47.4,29.76,ENE,67,10.0,14.0,97,0.00,,,0.00,Weather View 32 v70,2013-02-07 13:55:00,
2013-02-07 09:00:00,48.3,47.5,29.76,ENE,67,8.0,14.0,97,0.00,,,0.00,Weather View 32 v70,2013-02-07 14:00:00,
2013-02-07 09:05:00,48.5,47.7,29.75,East,90,6.0,14.0,97,0.00,,,0.00,Weather View 32 v70,2013-02-07 14:05:00,
2013-02-07 09:10:00,48.6,47.8,29.75,East,90,6.0,14.0,97,0.00,,,0.00,Weather View 32 v70,2013-02-07 14:10:00,
2013-02-07 09:15:00,48.8,48.0,29.75,East,90,9.0,14.0,97,0.00,,,0.00,Weather View 32 v70,2013-02-07 14:15:00,
2013-02-07 09:20:00,48.9,48.1,29.75,East,90,7.0,14.0,97,0.00,,,0.00,Weather View 32 v70,2013-02-07 14:20:00,
2013-02-07 09:25:00,49.3,48.5,29.75,East,90,9.0,14.0,97,0.00,,,0.00,Weather View 32 v70,2013-02-07 14:25:00,
2013-02-07 09:30:00,49.3,48.5,29.75,East,90,8.0,14.0,97,0.00,,,0.00,Weather View 32 v70,2013-02-07 14:30:00,
2013-02-07 09:35:00,49.4,48.6,29.75,East,90,3.0,14.0,97,0.00,,,0.00,Weather View 32 v70,2013-02-07 14:35:00,
2013-02-07 09:40:00,49.9,49.1,29.75,East,90,6.0,14.0,97,0.00,,,0.00,Weather View 32 v70,2013-02-07 14:40:00,
2013-02-07 09:45:00,50.2,49.4,29.75,East,90,9.0,13.0,97,0.00,,,0.00,Weather View 32 v70,2013-02-07 14:45:00,
2013-02-07 09:50:00,50.4,49.6,29.75,ENE,67,4.0,13.0,97,0.00,,,0.00,Weather View 32 v70,2013-02-07 14:50:00,
2013-02-07 09:56:00,50.5,49.7,29.75,ENE,67,8.0,14.0,97,0.00,,,0.00,Weather View 32 v70,2013-02-07 14:56:00,
2013-02-07 10:01:00,50.8,50.0,29.75,ESE,112,6.0,14.0,97,0.00,,,0.00,Weather View 32 v70,2013-02-07 15:01:00,
2013-02-07 10:06:00,51.0,50.2,29.76,East,90,6.0,14.0,97,0.00,,,0.00,Weather View 32 v70,2013-02-07 15:06:00,
2013-02-07 10:11:00,51.3,50.5,29.76,ENE,67,9.0,14.0,97,0.00,,,0.00,Weather View 32 v70,2013-02-07 15:11:00,
2013-02-07 10:16:00,51.2,50.4,29.76,East,90,6.0,14.0,97,0.00,,,0.00,Weather View 32 v70,2013-02-07 15:16:00,
2013-02-07 10:21:00,51.5,50.7,29.76,ENE,67,3.0,14.0,97,0.00,,,0.00,Weather View 32 v70,2013-02-07 15:21:00,
2013-02-07 10:26:00,51.6,50.8,29.76,East,90,9.0,14.0,97,0.00,,,0.00,Weather View 32 v70,2013-02-07 15:26:00,
2013-02-07 10:31:00,51.7,50.9,29.76,ENE,67,8.0,14.0,97,0.00,,,0.00,Weather View 32 v70,2013-02-07 15:31:00,
2013-02-07 10:36:00,51.8,51.0,29.75,NE,45,11.0,14.0,97,0.00,,,0.00,Weather View 32 v70,2013-02-07 15:36:00,
2013-02-07 10:41:00,51.8,51.0,29.75,East,90,6.0,14.0,97,0.00,,,0.00,Weather View 32 v70,2013-02-07 15:41:00,
2013-02-07 10:46:00,51.9,51.1,29.75,NE,45,9.0,14.0,97,0.00,,,0.00,Weather View 32 v70,2013-02-07 15:46:00,
2013-02-07 10:51:00,51.9,51.1,29.76,NE,45,6.0,14.0,97,0.00,,,0.00,Weather View 32 v70,2013-02-07 15:51:00,
2013-02-07 10:56:00,51.9,51.1,29.75,NE,45,9.0,14.0,97,0.00,,,0.00,Weather View 32 v70,2013-02-07 15:56:00,
2013-02-07 11:01:00,51.8,51.0,29.75,NE,45,7.0,14.0,97,0.00,,,0.00,Weather View 32 v70,2013-02-07 16:01:00,
2013-02-07 11:06:00,51.7,50.9,29.75,ENE,67,6.0,14.0,97,0.00,,,0.00,Weather View 32 v70,2013-02-07 16:06:00,
2013-02-07 11:11:00,51.5,50.7,29.75,ENE,67,6.0,14.0,97,0.00,,,0.00,Weather View 32 v70,2013-02-07 16:11:00,
2013-02-07 11:16:00,51.4,50.6,29.75,ENE,67,4.0,14.0,97,0.00,,,0.00,Weather View 32 v70,2013-02-07 16:16:00,
2013-02-07 11:21:00,51.3,50.5,29.75,NE,45,7.0,14.0,97,0.00,,,0.01,Weather View 32 v70,2013-02-07 16:21:00,
2013-02-07 11:26:00,51.2,50.4,29.74,NNE,22,2.0,14.0,97,0.02,,,0.02,Weather View 32 v70,2013-02-07 16:26:00,
2013-02-07 11:31:00,51.1,50.3,29.74,NE,45,4.0,14.0,97,0.02,,,0.02,Weather View 32 v70,2013-02-07 16:31:00,
2013-02-07 11:36:00,50.9,50.1,29.75,ENE,67,4.0,14.0,97,0.03,,,0.03,Weather View 32 v70,2013-02-07 16:36:00,
2013-02-07 11:41:00,50.7,49.9,29.75,NE,45,5.0,14.0,97,0.03,,,0.04,Weather View 32 v70,2013-02-07 16:41:00,
2013-02-07 11:46:00,50.6,49.8,29.74,NNE,22,6.0,14.0,97,0.04,,,0.04,Weather View 32 v70,2013-02-07 16:46:00,
2013-02-07 11:51:00,50.5,49.7,29.74,NE,45,6.0,14.0,97,0.04,,,0.04,Weather View 32 v70,2013-02-07 16:51:00,
2013-02-07 11:56:00,50.4,49.6,29.73,NNE,22,8.0,13.0,97,0.04,,,0.04,Weather View 32 v70,2013-02-07 16:56:00,
2013-02-07 12:01:00,50.3,49.5,29.73,NE,45,4.0,13.0,97,0.05,,,0.05,Weather View 32 v70,2013-02-07 17:01:00,
2013-02-07 12:06:00,50.2,49.4,29.73,NNE,22,5.0,12.0,97,0.05,,,0.05,Weather View 32 v70,2013-02-07 17:06:00,
2013-02-07 12:11:00,50.2,49.4,29.73,North,360,1.0,12.0,97,0.06,,,0.06,Weather View 32 v70,2013-02-07 17:11:00,
2013-02-07 12:16:00,50.1,49.3,29.73,North,360,4.0,10.0,97,0.06,,,0.06,Weather View 32 v70,2013-02-07 17:16:00,
2013-02-07 12:21:00,49.9,49.1,29.74,NE,45,4.0,10.0,97,0.06,,,0.06,Weather View 32 v70,2013-02-07 17:21:00,
2013-02-07 12:27:00,49.9,49.1,29.74,NE,45,4.0,10.0,97,0.04,,,0.06,Weather View 32 v70,2013-02-07 17:27:00,
2013-02-07 12:32:00,49.9,49.1,29.73,NNE,22,4.0,10.0,97,0.04,,,0.06,Weather View 32 v70,2013-02-07 17:32:00,
2013-02-07 12:37:00,49.9,49.1,29.73,NE,45,5.0,12.0,97,0.03,,,0.06,Weather View 32 v70,2013-02-07 17:37:00,
2013-02-07 12:42:00,49.8,49.0,29.73,North,360,7.0,12.0,97,0.02,,,0.06,Weather View 32 v70,2013-02-07 17:42:00,
2013-02-07 12:47:00,49.7,48.9,29.72,ENE,67,4.0,12.0,97,0.02,,,0.06,Weather View 32 v70,2013-02-07 17:47:00,
2013-02-07 12:52:00,49.6,48.8,29.73,NE,45,6.0,12.0,97,0.02,,,0.06,Weather View 32 v70,2013-02-07 17:52:00,
2013-02-07 12:57:00,49.6,48.8,29.72,NE,45,6.0,12.0,97,0.02,,,0.06,Weather View 32 v70,2013-02-07 17:57:00,
2013-02-07 13:02:00,49.5,48.7,29.72,NE,45,4.0,12.0,97,0.01,,,0.06,Weather View 32 v70,2013-02-07 18:02:00,
2013-02-07 13:07:00,49.5,48.7,29.71,ENE,67,9.0,12.0,97,0.01,,,0.06,Weather View 32 v70,2013-02-07 18:07:00,
2013-02-07 13:12:00,49.4,48.6,29.70,NE,45,9.0,13.0,97,0.00,,,0.06,Weather View 32 v70,2013-02-07 18:12:00,
2013-02-07 13:17:00,49.3,48.5,29.70,NE,45,7.0,13.0,97,0.00,,,0.06,Weather View 32 v70,2013-02-07 18:17:00,
2013-02-07 13:22:00,49.5,48.7,29.69,NE,45,7.0,13.0,97,0.01,,,0.07,Weather View 32 v70,2013-02-07 18:22:00,
2013-02-07 13:27:00,49.4,48.6,29.69,ENE,67,5.0,13.0,97,0.02,,,0.08,Weather View 32 v70,2013-02-07 18:27:00,
2013-02-07 13:32:00,49.2,48.4,29.69,ENE,67,8.0,13.0,97,0.03,,,0.09,Weather View 32 v70,2013-02-07 18:32:00,
2013-02-07 13:37:00,49.2,48.4,29.69,ENE,67,6.0,13.0,97,0.04,,,0.10,Weather View 32 v70,2013-02-07 18:37:00,
2013-02-07 13:42:00,49.1,48.3,29.68,ENE,67,11.0,14.0,97,0.05,,,0.11,Weather View 32 v70,2013-02-07 18:42:00,